QPF
0.00 0.00 0.00 0.00 0.00 0.00 0.00 0.00 0.00 0.00 0.00 0.00 0.00 0.00 0.00 0.00 0.00 0.00 0.00 0.00 0.00 0.00 0.00 0.00 0.00 0.00 0.00 0.00 0.00 0.00 0.00 0.00 0.00 0.00 0.00 0.00 0.00 0.00 0.00 0.00 0.00 0.00 0.00
0.00 0.00 0.00 0.00 0.00 0.00 0.00 0.00 0.00 0.00 0.00 0.00 0.00 0.00 0.00 0.00 0.00 0.00 0.00 0.00 0.00 0.00 0.00 0.00 0.00 0.00 0.00 0.00 0.00 0.00 0.00 0.00 0.00 0.00 0.00 0.00 0.00 0.00 0.00 0.00 0.00 0.00 0.00
0.00 0.00 0.00 0.00 0.00 0.00 0.00 0.00 0.00 0.00 0.00 0.00 0.00 0.00 0.00 0.00 0.00 0.00 0.00 0.00 0.00 0.00 0.00 0.00 0.00 0.00 0.00 0.00 0.00 0.00 0.00 0.00 0.00 0.00 0.00 0.00 0.00 0.00 0.00 0.00 0.00 0.00 0.00
0.00 0.00 0.00 0.00 0.00 0.00 0.00 0.00 0.00 0.00 0.00 0.00 0.00 0.00 0.00 0.00 0.00 0.00 0.00 0.00 0.00 0.00 0.00 0.00 0.00 0.00 0.00 0.00 0.00 0.00 0.00 0.00 0.00 0.00 0.00 0.00 0.00 0.00 0.00 0.00 0.00 0.00 0.00
0.00 0.00 0.00 0.00 0.00 0.00 0.00 0.00 0.00 0.00 0.00 0.00 0.00 0.00 0.00 0.00 0.00 0.00 0.00 0.00 0.00 0.00 0.00 0.00 0.00 0.00 0.00 0.00 0.00 0.00 0.00 0.00 0.00 0.00 0.00 0.00 0.00 0.00 0.00 0.00 0.00 0.00 0.00
0.00 0.00 0.00 0.00 0.00 0.00 0.00 0.00 0.00 0.00 0.00 0.00 0.00 0.00 0.00 0.00 0.00 0.00 0.00 0.00 0.00 0.00 0.00 0.00 0.00 0.00 0.00 0.00 0.00 0.00 0.00 0.00 0.00 0.00 0.00 0.00 0.00 0.00 0.00 0.00 0.00 0.00 0.00
0.00 0.00 0.00 0.00 0.00 0.00 0.00 0.00 0.00 0.00 0.00 0.00 0.00 0.00 0.00 0.00 0.00 0.00 0.00 0.00 0.00 0.00 0.00 0.00 0.00 0.00 0.00 0.00 0.00 0.00 0.00 0.00 0.00 0.00 0.00 0.00 0.00 0.00 0.00 0.00 0.00 0.00 0.00
0.00 0.00 0.00 0.00 0.00 0.00 0.00 0.00 0.00 0.00 0.00 0.00 0.00 0.00 0.00 0.00 0.00 0.00 0.00 0.00 0.00 0.00 0.00 0.00 0.00 0.00 0.00 0.00 0.00 0.00 0.00 0.00 0.00 0.00 0.00 0.00 0.00 0.00 0.00 0.00 0.00 0.00 0.00
0.00 0.00 0.00 0.00 0.00 0.00 0.00 0.00 0.00 0.00 0.00 0.00 0.00 0.00 0.00 0.00 0.00 0.00 0.00 0.00 0.00 0.00 0.00 0.00 0.00 0.00 0.00 0.00 0.00 0.00 0.00 0.00 0.00 0.00 0.00 0.00 0.00 0.00 0.00 0.00 0.00 0.00 0.00
0.00 0.00 0.00 0.00 0.00 0.00 0.00 0.00 0.00 0.00 0.00 0.00 0.00 0.00 0.00 0.00 0.00 0.00 0.00 0.00 0.00 0.00 0.00 0.00 0.00 0.00 0.00 0.00 0.00 0.00 0.00 0.00 0.00 0.00 0.00 0.00 0.00 0.00 0.00 0.00 0.00 0.00 0.00
0.00 0.00 0.00 0.00 0.00 0.00 0.00 0.00 0.00 0.00 0.00 0.00 0.00 0.00 0.00 0.00 0.00 0.00 0.00 0.00 0.00 0.00 0.00 0.00 0.00 0.00 0.00 0.00 0.00 0.00 0.00 0.00 0.00 0.00 0.00 0.00 0.00 0.00 0.00 0.00 0.00 0.00 0.00
0.00 0.00 0.00 0.00 0.00 0.00 0.00 0.00 0.00 0.00 0.00 0.00 0.00 0.00 0.00 0.00 0.00 0.00 0.00 0.00 0.00 0.00 0.00 0.00 0.00 0.00 0.00 0.00 0.00 0.00 0.00 0.00 0.00 0.00 0.00 0.00 0.00 0.00 0.00 0.00 0.00 0.00 0.00
0.00 0.00 0.00 0.00 0.00 0.00 0.00 0.00 0.00 0.00 0.00 0.00 0.00 0.00 0.00 0.00 0.00 0.00 0.00 0.00 0.00 0.00 0.00 0.00 0.00 0.00 0.00 0.00 0.00 0.00 0.00 0.00 0.00 0.00 0.00 0.00 0.00 0.00 0.00 0.00 0.00 0.00 0.00
0.00 0.00 0.00 0.00 0.00 0.00 0.00 0.00 0.00 0.00 0.00 0.00 0.00 0.00 0.00 0.00 0.00 0.00 0.00 0.00 0.00 0.00 0.00 0.00 0.00 0.00 0.00 0.00 0.00 0.00 0.00 0.00 0.00 0.00 0.00 0.00 0.00 0.00 0.00 0.00 0.00 0.00 0.00
0.00 0.00 0.00 0.00 0.00 0.00 0.00 0.00 0.00 0.00 0.00 0.00 0.00 0.00 0.00 0.00 0.00 0.00 0.00 0.00 0.00 0.00 0.00 0.00 0.00 0.00 0.00 0.00 0.00 0.00 0.00 0.00 0.00 0.00 0.00 0.00 0.00 0.00 0.00 0.00 0.00 0.00 0.00
0.00 0.00 0.00 0.00 0.00 0.00 0.00 0.00 0.00 0.00 0.00 0.00 0.00 0.00 0.00 0.00 0.00 0.00 0.00 0.00 0.00 0.00 0.00 0.00 0.00 0.00 0.00 0.00 0.00 0.00 0.00 0.00 0.00 0.00 0.00 0.00 0.00 0.00 0.00 0.00 0.00 0.00 0.00
0.00 0.00 0.00 0.00 0.00 0.00 0.00 0.00 0.00 0.00 0.00 0.00 0.00 0.00 0.00 0.00 0.00 0.00 0.00 0.00 0.00 0.00 0.00 0.00 0.00 0.00 0.00 0.00 0.00 0.00 0.00 0.00 0.00 0.00 0.00 0.00 0.00 0.00 0.00 0.00 0.00 0.00 0.00
0.00 0.00 0.00 0.00 0.00 0.00 0.00 0.00 0.00 0.00 0.00 0.00 0.00 0.00 0.00 0.00 0.00 0.00 0.00 0.00 0.00 0.00 0.00 0.00 0.00 0.00 0.00 0.00 0.00 0.00 0.00 0.00 0.00 0.00 0.00 0.00 0.00 0.00 0.00 0.00 0.00 0.00 0.00
0.00 0.00 0.00 0.00 0.00 0.00 0.00 0.00 0.00 0.00 0.00 0.00 0.00 0.00 0.00 0.00 0.00 0.00 0.00 0.00 0.00 0.00 0.00 0.00 0.00 0.00 0.00 0.00 0.00 0.00 0.00 0.00 0.00 0.00 0.00 0.00 0.00 0.00 0.00 0.00 0.00 0.00 0.00
0.00 0.00 0.00 0.00 0.00 0.00 0.00 0.00 0.00 0.00 0.00 0.00 0.00 0.00 0.00 0.00 0.00 0.00 0.00 0.00 0.00 0.00 0.00 0.00 0.00 0.00 0.00 0.00 0.00 0.00 0.00 0.00 0.00 0.00 0.00 0.00 0.00 0.00 0.00 0.00 0.00 0.00 0.00
0.00 0.00 0.00 0.00 0.00 0.00 0.00 0.00 0.00 0.00 0.00 0.00 0.00 0.00 0.00 0.00 0.00 0.00 0.00 0.00 0.00 0.00 0.00 0.00 0.00 0.00 0.00 0.00 0.00 0.00 0.00 0.00 0.00 0.00 0.00 0.00 0.00 0.00 0.00 0.00 0.00 0.00 0.00
0.00 0.00 0.00 0.00 0.00 0.00 0.00 0.00 0.00 0.00 0.00 0.00 0.00 0.00 0.00 0.00 0.00 0.00 0.00 0.00 0.00 0.00 0.00 0.00 0.00 0.00 0.00 0.00 0.00 0.00 0.00 0.00 0.00 0.00 0.00 0.00 0.00 0.00 0.00 0.00 0.00 0.00 0.00
0.00 0.00 0.00 0.00 0.00 0.00 0.00 0.00 0.00 0.00 0.00 0.00 0.00 0.00 0.00 0.00 0.00 0.00 0.00 0.00 0.00 0.00 0.00 0.00 0.00 0.00 0.00 0.00 0.00 0.00 0.00 0.00 0.00 0.00 0.01 0.01 0.00 0.00 0.00 0.00 0.00 0.00 0.00
0.00 0.00 0.00 0.00 0.00 0.00 0.00 0.00 0.00 0.00 0.00 0.00 0.00 0.00 0.00 0.00 0.00 0.00 0.00 0.00 0.00 0.00 0.00 0.00 0.00 0.00 0.00 0.00 0.00 0.00 0.00 0.00 0.00 0.00 0.01 0.01 0.01 0.00 0.00 0.00 0.00 0.00 0.00
0.00 0.00 0.00 0.00 0.00 0.00 0.00 0.00 0.00 0.00 0.00 0.00 0.00 0.00 0.00 0.00 0.00 0.00 0.00 0.00 0.00 0.00 0.00 0.00 0.00 0.00 0.00 0.00 0.00 0.00 0.00 0.00 0.00 0.01 0.01 0.01 0.00 0.00 0.00 0.00 0.00 0.00 0.00
0.00 0.00 0.00 0.00 0.00 0.00 0.00 0.00 0.00 0.00 0.00 0.00 0.00 0.00 0.00 0.00 0.00 0.00 0.00 0.00 0.00 0.00 0.00 0.00 0.00 0.00 0.00 0.00 0.00 0.00 0.00 0.00 0.01 0.01 0.01 0.00 0.00 0.00 0.00 0.00 0.00 0.00 0.00
MSLP
1002.72 1003.78 1004.61 1005.66 1006.45 1007.63 1008.87 1009.96 1010.76 1012.00 1013.32 1014.64 1015.75 1016.93 1017.83 1018.70 1019.77 1020.76 1021.59 1022.29 1022.93 1023.37 1023.84 1024.07 1024.10 1024.32 1024.42 1024.47 1024.48 1024.40 1024.22 1024.16 1023.55 1022.46 1022.27 1021.59 1020.82 1019.98 1019.25 1018.67 1018.02 1017.29 1016.47
1001.79 1003.10 1004.17 1005.09 1005.98 1006.96 1008.25 1009.14 1010.22 1011.07 1012.52 1013.77 1015.08 1016.29 1017.21 1018.19 1019.21 1020.22 1021.08 1021.87 1022.52 1022.94 1023.40 1023.84 1023.98 1024.11 1024.19 1024.16 1024.08 1023.92 1023.78 1023.68 1023.43 1022.31 1021.72 1021.09 1020.48 1019.54 1018.58 1017.79 1017.07 1016.40 1015.86
1001.62 1002.77 1003.80 1004.63 1005.37 1006.26 1007.80 1008.77 1009.59 1010.67 1011.91 1013.21 1014.35 1015.41 1016.45 1017.56 1018.71 1019.66 1020.53 1021.47 1022.11 1022.63 1023.06 1023.39 1023.56 1023.68 1023.72 1023.66 1023.59 1023.46 1023.31 1023.08 1022.95 1022.47 1021.09 1020.55 1019.72 1018.96 1017.84 1017.14 1016.41 1015.68 1015.34
1001.47 1002.43 1003.20 1004.07 1004.90 1006.04 1007.28 1008.61 1009.55 1010.69 1011.46 1012.67 1013.84 1014.91 1015.99 1017.11 1018.23 1019.20 1020.21 1021.05 1021.76 1022.32 1022.77 1023.06 1023.24 1023.32 1023.34 1023.40 1023.31 1023.29 1023.16 1022.89 1022.54 1022.02 1020.99 1020.12 1019.41 1018.47 1017.84 1016.67 1015.59 1015.64 1014.77
1001.44 1002.22 1002.93 1004.17 1004.90 1005.88 1007.23 1008.41 1009.62 1010.39 1011.17 1012.34 1013.58 1014.76 1015.78 1016.86 1017.90 1018.94 1020.01 1020.81 1021.48 1022.07 1022.55 1022.83 1022.96 1022.99 1023.03 1023.23 1023.15 1022.91 1022.77 1022.51 1022.16 1021.56 1020.80 1019.88 1018.95 1017.98 1017.48 1016.71 1015.74 1014.63 1014.16
1001.53 1002.36 1003.34 1004.15 1004.96 1005.98 1007.28 1008.59 1009.56 1010.32 1011.22 1012.41 1013.60 1014.58 1015.69 1016.91 1017.90 1018.94 1019.86 1020.60 1021.23 1021.72 1022.12 1022.38 1022.55 1022.49 1022.77 1022.70 1022.56 1022.49 1022.39 1021.94 1021.43 1020.94 1020.33 1019.42 1018.79 1018.05 1017.34 1016.78 1015.76 1014.40 1012.12
1002.10 1002.80 1003.51 1004.28 1005.13 1006.23 1007.57 1008.61 1009.43 1010.38 1011.43 1012.70 1013.77 1014.74 1015.83 1016.94 1017.85 1018.75 1019.61 1020.47 1021.13 1021.58 1021.85 1022.05 1021.99 1022.03 1022.30 1022.31 1022.21 1021.97 1021.54 1021.17 1020.73 1020.29 1019.67 1019.17 1018.46 1017.90 1017.14 1015.94 1015.41 1014.44 1013.22
1002.92 1003.42 1004.04 1004.74 1005.66 1006.71 1007.76 1008.72 1009.67 1010.76 1011.77 1012.83 1013.83 1014.61 1015.70 1016.86 1017.75 1018.68 1019.64 1020.47 1021.12 1021.38 1021.63 1021.68 1021.70 1021.89 1021.97 1021.95 1021.82 1021.49 1020.95 1020.52 1020.10 1019.79 1019.36 1018.82 1018.20 1017.44 1016.99 1016.14 1014.97 1013.40 1012.10
1003.54 1004.04 1004.72 1005.44 1006.21 1006.95 1007.82 1008.79 1009.90 1010.97 1012.16 1013.12 1013.79 1014.73 1015.89 1017.01 1017.87 1018.73 1019.73 1020.51 1020.99 1021.19 1021.37 1021.49 1021.59 1021.68 1021.66 1021.71 1021.47 1021.04 1020.47 1020.02 1019.74 1019.44 1018.99 1018.31 1017.77 1017.05 1016.33 1015.23 1014.38 1013.52 1011.21
1004.08 1004.59 1005.29 1005.94 1006.69 1007.43 1008.01 1008.88 1010.05 1011.19 1012.17 1013.01 1014.06 1015.33 1016.31 1017.16 1017.99 1018.88 1019.81 1020.46 1020.87 1021.05 1021.22 1021.27 1021.34 1021.47 1021.53 1021.46 1021.12 1020.68 1020.30 1019.89 1019.56 1018.93 1018.45 1017.93 1017.46 1016.68 1015.72 1015.24 1014.31 1013.09 1011.95
1004.25 1005.00 1005.61 1006.29 1007.01 1007.75 1008.61 1009.48 1010.15 1011.22 1012.32 1013.38 1014.56 1015.80 1016.66 1017.31 1018.25 1019.17 1019.87 1020.27 1020.63 1020.75 1020.82 1021.05 1021.23 1021.32 1021.33 1021.16 1020.82 1020.66 1020.30 1019.88 1019.19 1018.65 1018.13 1017.50 1016.77 1015.98 1015.08 1014.41 1013.82 1013.05 1011.51
1004.55 1005.31 1006.05 1006.55 1007.26 1008.18 1008.95 1009.92 1010.72 1011.46 1012.51 1013.91 1015.02 1016.04 1017.03 1017.80 1018.66 1019.32 1019.92 1020.26 1020.44 1020.55 1020.95 1021.12 1021.15 1021.31 1021.19 1020.86 1020.78 1020.59 1020.09 1019.53 1018.78 1018.17 1017.74 1017.01 1016.11 1015.23 1014.13 1013.39 1012.40 1011.51 1010.64
1005.10 1005.81 1006.60 1007.20 1007.86 1008.57 1009.24 1010.13 1011.12 1011.97 1012.92 1014.21 1015.00 1016.24 1017.31 1018.16 1018.87 1019.49 1019.89 1020.09 1020.39 1020.57 1021.03 1021.20 1021.14 1021.01 1021.00 1020.96 1021.01 1020.52 1019.74 1019.22 1018.61 1017.93 1017.39 1016.94 1016.06 1014.75 1013.36 1012.18 1011.21 1010.12 1008.82
1005.71 1006.47 1006.83 1007.57 1008.33 1009.07 1009.89 1010.67 1011.32 1012.26 1013.19 1014.32 1015.34 1016.48 1017.51 1018.36 1018.98 1019.37 1019.51 1019.82 1020.28 1020.68 1021.08 1021.02 1021.04 1021.02 1021.14 1021.26 1020.94 1020.35 1019.76 1019.15 1018.50 1017.80 1017.12 1016.79 1015.66 1014.17 1012.77 1011.86 1010.39 1008.93 1007.45
1006.06 1006.77 1007.41 1007.98 1008.76 1009.57 1010.47 1011.18 1011.78 1012.83 1013.37 1014.28 1015.42 1016.51 1017.36 1018.17 1018.72 1019.01 1019.23 1019.70 1020.24 1020.79 1020.90 1020.99 1020.97 1021.21 1021.28 1021.28 1020.98 1020.60 1019.92 1019.20 1018.31 1017.68 1017.01 1016.23 1015.00 1013.70 1012.49 1011.39 1010.10 1008.40 1007.07
1006.56 1007.01 1007.80 1008.57 1009.24 1010.16 1010.86 1011.71 1012.56 1013.25 1014.08 1015.04 1016.02 1016.75 1017.52 1018.16 1018.71 1019.13 1019.47 1020.01 1020.59 1020.84 1020.86 1021.21 1021.27 1021.60 1021.64 1021.65 1020.90 1020.45 1020.06 1019.29 1018.32 1017.52 1016.52 1016.02 1014.88 1013.47 1012.05 1010.66 1009.45 1008.09 1006.36
1007.08 1007.48 1008.11 1008.75 1009.54 1010.28 1011.11 1011.90 1012.69 1014.25 1014.99 1015.72 1016.33 1017.01 1017.77 1018.56 1019.08 1019.48 1019.91 1020.32 1020.67 1020.92 1021.03 1021.31 1021.75 1022.06 1022.25 1021.76 1020.95 1020.47 1019.99 1019.32 1018.27 1017.32 1016.04 1015.52 1014.48 1013.06 1011.73 1010.05 1008.58 1007.14 1005.42
1007.58 1007.72 1008.28 1008.98 1009.80 1010.66 1011.73 1012.42 1013.35 1014.35 1015.13 1016.05 1016.99 1017.43 1018.29 1019.20 1019.51 1019.96 1020.18 1020.21 1020.75 1021.17 1021.47 1021.81 1022.08 1022.21 1021.90 1021.59 1020.82 1020.34 1020.01 1019.19 1018.06 1016.69 1015.90 1015.19 1013.90 1012.67 1011.00 1009.46 1008.04 1006.71 1004.96
1008.18 1008.51 1008.98 1009.70 1010.14 1011.14 1012.28 1012.85 1013.87 1014.97 1015.69 1016.46 1017.37 1018.28 1019.02 1019.69 1019.96 1020.45 1020.51 1020.68 1021.16 1021.33 1021.97 1022.35 1022.42 1022.22 1021.85 1021.26 1020.78 1020.61 1019.86 1018.80 1017.63 1016.92 1015.92 1014.66 1013.34 1012.03 1010.48 1009.11 1007.64 1006.23 1004.63
1008.97 1009.22 1009.64 1010.33 1011.41 1012.18 1012.91 1013.77 1014.91 1015.78 1016.61 1017.46 1018.31 1019.12 1019.92 1020.16 1020.66 1020.91 1021.14 1021.66 1021.82 1021.95 1022.55 1022.93 1022.59 1022.22 1021.83 1021.35 1020.90 1020.55 1019.64 1018.67 1017.64 1016.76 1015.72 1014.15 1012.79 1011.63 1010.16 1008.64 1007.31 1005.86 1004.23
1010.05 1010.64 1011.15 1011.85 1012.43 1013.05 1014.01 1015.07 1016.11 1016.66 1017.34 1018.68 1019.33 1019.77 1020.10 1020.75 1021.29 1021.60 1021.95 1021.92 1022.11 1022.50 1023.02 1023.08 1022.56 1022.11 1021.75 1021.55 1020.92 1020.21 1019.24 1018.58 1017.67 1016.61 1015.19 1013.61 1012.18 1011.02 1009.79 1008.41 1007.27 1005.68 1004.12
1011.43 1012.04 1012.38 1012.76 1013.35 1014.14 1015.24 1016.32 1016.99 1017.42 1018.28 1019.26 1019.83 1020.43 1020.82 1021.17 1021.82 1022.36 1022.29 1022.46 1022.66 1022.96 1022.94 1022.73 1022.57 1021.94 1021.52 1021.54 1020.93 1019.83 1019.11 1018.23 1017.27 1016.30 1014.73 1013.23 1011.94 1010.65 1009.40 1008.31 1006.90 1005.28 1003.76
1012.61 1013.06 1013.51 1014.02 1014.58 1015.29 1016.30 1017.16 1017.85 1018.52 1019.42 1020.12 1020.60 1021.00 1021.26 1021.92 1022.59 1022.55 1022.81 1022.77 1022.95 1023.05 1022.61 1022.57 1022.45 1021.77 1021.27 1020.94 1020.28 1019.68 1018.88 1018.07 1017.24 1015.92 1014.22 1012.59 1011.49 1010.39 1009.30 1008.12 1006.69 1005.08 1003.64
1013.63 1013.88 1014.47 1015.17 1015.71 1016.46 1017.31 1018.17 1018.94 1019.53 1020.29 1020.83 1021.23 1021.69 1021.94 1022.20 1022.61 1022.75 1022.99 1023.12 1022.96 1023.05 1022.95 1022.52 1022.10 1021.60 1020.95 1020.40 1019.56 1018.91 1018.40 1017.69 1016.47 1015.13 1013.66 1012.35 1011.25 1010.25 1009.12 1007.93 1006.59 1005.00 1003.48
1014.82 1015.05 1015.53 1016.28 1016.91 1017.63 1018.45 1019.21 1019.76 1020.27 1020.82 1021.32 1022.05 1022.15 1022.23 1022.43 1022.82 1022.93 1023.11 1023.13 1023.41 1023.28 1022.86 1022.52 1021.61 1021.09 1020.69 1019.88 1018.98 1018.50 1017.84 1016.51 1015.54 1014.31 1013.04 1012.10 1011.18 1010.20 1008.99 1007.79 1006.37 1004.69 1003.31
1015.88 1016.08 1016.64 1017.45 1018.11 1018.89 1019.44 1020.03 1020.68 1021.40 1021.69 1021.72 1022.26 1022.50 1022.55 1022.91 1022.98 1023.08 1023.34 1023.42 1023.35 1023.08 1022.99 1022.18 1021.30 1020.80 1020.08 1019.40 1018.43 1017.81 1016.78 1015.91 1014.69 1013.55 1012.62 1011.94 1011.04 1009.88 1008.70 1007.36 1005.96 1004.76 1003.30
Thickness
5631 5628 5626 5621 5620 5615 5609 5603 5600 5593 5585 5575 5569 5560 5553 5548 5539 5529 5522 5514 5508 5503 5499 5495 5493 5488 5484 5481 5478 5475 5471 5466 5466 5472 5461 5456 5455 5453 5452 5447 5442 5438 5434
5630 5623 5620 5617 5614 5611 5605 5601 5595 5591 5581 5573 5563 5555 5549 5542 5532 5523 5515 5507 5500 5497 5492 5486 5482 5478 5475 5473 5470 5466 5462 5456 5452 5456 5451 5446 5442 5441 5442 5441 5436 5431 5425
5619 5615 5612 5610 5609 5607 5598 5593 5590 5583 5575 5566 5558 5553 5545 5536 5525 5517 5509 5500 5493 5488 5483 5478 5474 5471 5468 5465 5461 5457 5453 5448 5442 5437 5442 5436 5435 5431 5435 5431 5427 5422 5414
5610 5607 5606 5605 5602 5597 5591 5583 5579 5571 5566 5559 5552 5546 5538 5528 5519 5510 5500 5492 5485 5480 5474 5469 5466 5463 5459 5455 5451 5445 5440 5435 5431 5426 5427 5427 5424 5423 5418 5419 5423 5408 5405
5600 5599 5598 5592 5591 5587 5579 5573 5566 5562 5558 5551 5544 5536 5528 5518 5510 5499 5490 5482 5477 5470 5464 5460 5457 5454 5450 5444 5440 5435 5429 5424 5418 5416 5415 5415 5414 5413 5407 5405 5404 5403 5393
5586 5585 5582 5581 5579 5574 5567 5560 5555 5551 5547 5540 5532 5524 5515 5505 5497 5488 5479 5472 5467 5462 5457 5452 5448 5446 5440 5436 5431 5425 5418 5413 5410 5408 5406 5405 5400 5397 5394 5388 5385 5385 5398
5571 5570 5569 5567 5564 5560 5553 5547 5544 5539 5534 5526 5518 5510 5502 5492 5485 5478 5470 5463 5457 5452 5447 5443 5441 5438 5432 5427 5422 5415 5410 5405 5403 5400 5397 5391 5390 5381 5381 5384 5373 5369 5364
5549 5552 5552 5551 5547 5542 5537 5534 5530 5524 5519 5512 5505 5499 5490 5482 5475 5466 5458 5451 5445 5441 5437 5434 5431 5426 5423 5418 5413 5407 5403 5400 5397 5391 5386 5381 5375 5372 5364 5361 5360 5365 5363
5532 5534 5533 5531 5529 5528 5525 5521 5516 5509 5502 5495 5492 5485 5476 5469 5462 5454 5445 5438 5433 5430 5427 5424 5420 5416 5412 5407 5403 5399 5398 5394 5388 5382 5376 5372 5366 5361 5355 5355 5347 5340 5353
5515 5516 5516 5515 5514 5512 5511 5507 5501 5494 5487 5483 5476 5467 5460 5454 5448 5441 5433 5426 5421 5419 5416 5414 5411 5406 5399 5395 5393 5392 5390 5386 5381 5378 5372 5366 5360 5355 5347 5337 5331 5329 5322
5502 5501 5502 5501 5499 5497 5493 5489 5487 5481 5474 5468 5460 5452 5445 5441 5433 5425 5419 5415 5411 5409 5407 5404 5399 5393 5388 5385 5384 5381 5379 5376 5375 5371 5366 5361 5358 5352 5346 5336 5323 5310 5309
5484 5484 5484 5486 5484 5480 5476 5472 5469 5466 5459 5451 5444 5437 5430 5424 5417 5412 5406 5403 5400 5398 5394 5390 5386 5380 5377 5376 5372 5369 5369 5367 5367 5364 5358 5354 5351 5348 5345 5336 5328 5317 5304
5467 5468 5467 5466 5465 5463 5461 5457 5451 5448 5444 5436 5432 5423 5416 5409 5402 5397 5394 5392 5389 5386 5380 5376 5373 5371 5367 5363 5358 5358 5360 5358 5356 5354 5350 5342 5339 5339 5338 5333 5326 5318 5314
5447 5447 5449 5448 5447 5445 5442 5439 5438 5434 5429 5423 5417 5408 5399 5393 5388 5386 5385 5382 5378 5373 5367 5365 5362 5360 5355 5349 5347 5348 5348 5346 5345 5344 5340 5331 5330 5331 5329 5320 5320 5317 5317
5429 5429 5430 5432 5429 5427 5424 5423 5422 5416 5415 5410 5402 5393 5387 5381 5378 5376 5375 5372 5366 5360 5357 5354 5352 5346 5342 5338 5336 5335 5335 5334 5335 5331 5327 5324 5324 5322 5319 5312 5306 5307 5302
5411 5414 5414 5413 5413 5411 5410 5406 5403 5400 5396 5390 5383 5378 5373 5369 5366 5364 5362 5357 5351 5348 5346 5340 5337 5331 5329 5324 5327 5325 5321 5321 5322 5320 5320 5312 5311 5310 5310 5307 5299 5293 5293
5395 5398 5400 5400 5399 5397 5394 5392 5390 5380 5376 5371 5367 5364 5360 5355 5352 5350 5347 5343 5339 5336 5332 5328 5322 5317 5311 5312 5315 5314 5312 5310 5312 5310 5312 5304 5301 5301 5298 5298 5294 5289 5291
5377 5384 5385 5385 5383 5380 5375 5375 5371 5364 5360 5355 5350 5348 5344 5338 5337 5335 5334 5333 5326 5321 5317 5313 5308 5304 5304 5302 5304 5303 5299 5299 5301 5306 5302 5295 5294 5290 5292 5290 5285 5279 5283
5359 5363 5365 5364 5365 5361 5357 5358 5354 5347 5343 5340 5335 5330 5327 5323 5322 5318 5319 5316 5311 5310 5302 5296 5293 5292 5293 5295 5294 5288 5288 5291 5294 5291 5289 5289 5286 5284 5284 5281 5277 5276 5279
5340 5345 5346 5346 5341 5339 5339 5337 5331 5327 5324 5320 5316 5313 5309 5308 5305 5304 5302 5297 5295 5294 5285 5279 5281 5281 5280 5281 5280 5276 5279 5281 5283 5282 5279 5280 5279 5275 5275 5273 5270 5272 5279
5319 5319 5321 5320 5321 5322 5319 5315 5310 5310 5309 5299 5296 5296 5295 5290 5288 5286 5283 5284 5280 5276 5268 5265 5268 5269 5269 5265 5267 5269 5272 5271 5271 5271 5272 5274 5273 5271 5268 5264 5263 5268 5276
5300 5298 5301 5304 5304 5303 5299 5294 5293 5294 5291 5285 5282 5278 5277 5277 5272 5267 5269 5268 5265 5260 5258 5258 5256 5259 5259 5254 5255 5262 5263 5264 5263 5262 5266 5266 5265 5263 5261 5256 5259 5267 5277
5282 5283 5284 5285 5287 5287 5282 5278 5277 5275 5270 5266 5264 5263 5263 5257 5253 5254 5252 5253 5249 5246 5248 5247 5245 5249 5250 5248 5251 5253 5254 5254 5252 5254 5259 5261 5260 5256 5253 5252 5257 5267 5276
5264 5268 5268 5266 5267 5266 5263 5260 5256 5255 5251 5248 5246 5244 5243 5243 5241 5240 5238 5236 5236 5234 5233 5235 5237 5240 5241 5242 5246 5247 5245 5244 5247 5249 5251 5253 5251 5248 5247 5248 5255 5265 5277
5244 5248 5249 5247 5246 5244 5241 5238 5237 5236 5234 5231 5225 5228 5230 5229 5225 5225 5223 5223 5220 5219 5221 5223 5230 5232 5232 5236 5240 5238 5237 5241 5241 5243 5245 5244 5241 5239 5240 5245 5255 5267 5278
5225 5228 5228 5225 5224 5222 5221 5219 5216 5212 5213 5215 5212 5211 5212 5210 5212 5212 5209 5209 5209 5210 5208 5214 5220 5222 5226 5227 5231 5230 5233 5234 5237 5238 5237 5235 5233 5234 5238 5246 5257 5265 5278